SCOUT A DEB, 2889

Orbit data source: Space-Track

SCOUT A DEB, 2889 is space debris in LEO originally from a launch on Fri, 28 Jan 1966 UTC launched from the Air Force Western Test Range (AFWTR). Debris objects in space refer to the collection of defunct objects orbiting the Earth. Examples of debris include non-operational satellites, rocket bodies, and fragments generated from explosions, collisions, or faulty payload assembly.

Loading next visibility...
Identifier
2889, 1966-005E
Orbit
LEO
Last TLE update
1 day ago
Origin
Manufacturer
Unknown
Mission
Spacecraft
Bus & Motor
Unknown
Mass
Unknown
Launch date (UTC)
1966-01-28 (59 years ago)
Launch vehicle
Unknown
Launch site
Air Force Western Test Range (AFWTR)
Object type
Payload
Rocket body
Debris
Shape & HBR
Unknown
Radar Cross Section
Small (<0.1 m²)

Expand to show TLE details & history

TLE from 1 day ago
0 SCOUT A DEB
1 02889U 66005E   25181.00080963  .00000069  00000-0  13925-3 0  9995
2 02889  89.5454 173.2216 0168271  41.0348  25.6592 13.17954958790008
Epoch: 2025-06-30T00:01Z
TLE epoch observation values (Epoch: 2025-06-30T00:01:09.952Z)
Latitude
67.61692°
Longitude
-104.28848°
Altitude
1,089.88 km
Speed
7.369 km/s
True Right ascension
11h 37m 16s
True Declination
67° 30' 03"
Sunlit
Object was in daylight at epoch
Visualization orbit readout
Latitude
66.18171°
Longitude
-104.42138°
Altitude
1,091.916 km
Speed
7.366 km/s
Apparent Right ascension
09h 37m 56s
Apparent Declination
20° 35' 57"
Sunlit
Object is in daylight
Visualization observer readout
Local Sidereal Time
20:26:42
Azimuth
341.215° N
Elevation
-27.244°
Doppler factor
1
Orbital elements
Apogee altitude
1,316.981 km
Perigee altitude
1,062.294 km
Semi-major axis
7,567.774 km
Eccentricity
0.01683
Inclination
89.5454°
RAAN
173.2216°
Arg. of periapsis
41.0348°
True anomaly
Unknown
Mean anomaly
25.6592°
Eccentric anomaly
Unknown
Mean motion
3.29679 °/min
Orbital period
109.2 mins
BSTAR
0.00013925
Loading maneuver chart data...
Loading SW <> Apogee altitude chart data...
Loading historical data...
Loading historical data...
Loading historical data...
Loading historical data...
Loading historical data...
Loading historical data...
Loading historical data...

SCOUT A DEB Visibility forecast

Observer location: undefined°, undefined°

Span
Click to sort rows by Start time (UTC) header in descending order
Start Az.
Max El. time (UTC)
Max El. Az.
Max El.
End time (UTC)
End Az.
13 mins2025-07-01 10:53:31.519Z17.631° NNE2025-07-01 10:59:31.519Z76.556° E32.371°2025-07-01 11:06:31.519Z151.052° SSE
11 mins2025-07-01 12:44:31.519Z335.287° NNW2025-07-01 12:48:31.519Z288.759° WNW30.935°2025-07-01 12:55:31.519Z218.214° SW
11 mins2025-07-01 23:10:31.519Z148.563° SSE2025-07-01 23:15:31.519Z83.42° E36.123°2025-07-01 23:21:31.519Z11.254° NNE
8 mins2025-07-02 01:01:31.519Z237.714° WSW2025-07-02 01:04:31.519Z273.041° WNW23.484°2025-07-02 01:09:31.519Z329.282° NNW
|